• In United Kingdom
  • List of Countries
  • For 7 days
  • Water Temperature
  • Satellite Maps
  • Weather Map
  • Weather Widgets
  • user-avatar
    Login

    Hourly Weather Tytusin

    Today, 22 July, Sunday

    Time Temperature Precipitation Wind Pressure Humidity
    00:00 +20°C° 0 mm 1 mps 741 mmHg 81%
    01:00 +19°C° 0 mm 1 mps 740 mmHg 82%
    02:00 +19°C° 0 mm 1 mps 740 mmHg 85%
    03:00 +19°C° 0 mm 1 mps 740 mmHg 85%
    04:00 +19°C° 0 mm 1 mps 740 mmHg 86%
    05:00 +19°C° 0 mm 1 mps 740 mmHg 86%
    06:00 +20°C° 0 mm 1 mps 740 mmHg 82%
    07:00 +22°C° 0 mm 1 mps 740 mmHg 79%
    08:00 +23°C° 0 mm 1 mps 741 mmHg 75%
    09:00 +25°C° 0.1 mm 1 mps 740 mmHg 69%
    10:00 +26°C° 0.1 mm 2 mps 740 mmHg 63%
    11:00 +27°C° 0.1 mm 2 mps 740 mmHg 56%
    12:00 +28°C° 0 mm 2 mps 740 mmHg 54%
    13:00 +28°C° 0 mm 3 mps 740 mmHg 52%
    14:00 +29°C° 0 mm 2 mps 740 mmHg 49%
    15:00 +29°C° 0.1 mm 3 mps 740 mmHg 51%
    16:00 +28°C° 0.1 mm 3 mps 740 mmHg 53%
    17:00 +28°C° 0.1 mm 3 mps 740 mmHg 56%
    18:00 +27°C° 0.2 mm 3 mps 740 mmHg 63%
    19:00 +25°C° 0.2 mm 2 mps 740 mmHg 71%
    20:00 +23°C° 0.2 mm 2 mps 739 mmHg 78%
    21:00 +22°C° 0.2 mm 1 mps 740 mmHg 80%
    22:00 +22°C° 0.2 mm 1 mps 740 mmHg 82%
    23:00 +21°C° 0.2 mm 1 mps 740 mmHg 84%

    Tomorrow, 23 July, Monday

    Time Temperature Precipitation Wind Pressure Humidity
    00:00 +20°C° 0 mm 1 mps 740 mmHg 86%
    01:00 +19°C° 0 mm 2 mps 740 mmHg 87%
    02:00 +19°C° 0 mm 2 mps 740 mmHg 89%
    03:00 +18°C° 0 mm 2 mps 740 mmHg 90%
    04:00 +18°C° 0 mm 2 mps 740 mmHg 92%
    05:00 +18°C° 0 mm 3 mps 739 mmHg 94%
    06:00 +19°C° 0 mm 3 mps 740 mmHg 90%
    07:00 +20°C° 0 mm 3 mps 740 mmHg 87%
    08:00 +21°C° 0 mm 4 mps 740 mmHg 83%
    09:00 +22°C° 0.6 mm 4 mps 740 mmHg 79%
    10:00 +25°C° 0.6 mm 5 mps 740 mmHg 75%
    11:00 +26°C° 0.6 mm 5 mps 740 mmHg 72%
    12:00 +26°C° 0.6 mm 5 mps 739 mmHg 70%
    13:00 +26°C° 0.6 mm 5 mps 739 mmHg 69%
    14:00 +27°C° 0.6 mm 5 mps 739 mmHg 67%
    15:00 +27°C° 0.7 mm 5 mps 739 mmHg 70%
    16:00 +26°C° 0.7 mm 5 mps 739 mmHg 72%
    17:00 +26°C° 0.7 mm 5 mps 739 mmHg 75%
    18:00 +25°C° 0.3 mm 4 mps 739 mmHg 78%
    19:00 +23°C° 0.3 mm 4 mps 739 mmHg 81%
    20:00 +22°C° 0.3 mm 4 mps 739 mmHg 85%
    21:00 +22°C° 0.6 mm 4 mps 739 mmHg 86%
    22:00 +21°C° 0.6 mm 4 mps 739 mmHg 87%
    23:00 +20°C° 0.6 mm 5 mps 739 mmHg 89%

    Day after tomorrow, 24 July, Tuesday

    Time Temperature Precipitation Wind Pressure Humidity
    00:00 +20°C° 0.2 mm 5 mps 739 mmHg 90%
    01:00 +20°C° 0.2 mm 5 mps 739 mmHg 91%
    02:00 +19°C° 0.2 mm 5 mps 739 mmHg 93%
    03:00 +19°C° 0.2 mm 4 mps 739 mmHg 93%
    04:00 +19°C° 0.2 mm 4 mps 739 mmHg 94%
    05:00 +18°C° 0.2 mm 4 mps 739 mmHg 95%
    06:00 +19°C° 0.5 mm 4 mps 740 mmHg 93%
    07:00 +20°C° 0.5 mm 5 mps 740 mmHg 91%
    08:00 +21°C° 0.5 mm 5 mps 740 mmHg 89%
    09:00 +21°C° 0.2 mm 5 mps 740 mmHg 86%
    10:00 +22°C° 0.2 mm 5 mps 740 mmHg 82%
    11:00 +23°C° 0.2 mm 4 mps 740 mmHg 79%
    12:00 +25°C° 0.5 mm 5 mps 740 mmHg 76%
    13:00 +26°C° 0.5 mm 5 mps 740 mmHg 73%
    14:00 +27°C° 0.5 mm 5 mps 740 mmHg 69%
    15:00 +27°C° 0.7 mm 5 mps 740 mmHg 70%
    16:00 +27°C° 0.7 mm 5 mps 739 mmHg 71%
    17:00 +27°C° 0.7 mm 5 mps 739 mmHg 72%
    18:00 +25°C° 0.5 mm 4 mps 739 mmHg 76%
    19:00 +23°C° 0.5 mm 4 mps 739 mmHg 81%
    20:00 +22°C° 0.5 mm 3 mps 740 mmHg 85%
    21:00 +21°C° 0 mm 3 mps 740 mmHg 88%
    22:00 +21°C° 0 mm 3 mps 740 mmHg 90%
    23:00 +20°C° 0 mm 3 mps 740 mmHg 93%

    25 July, Wednesday

    Time Temperature Precipitation Wind Pressure Humidity
    00:00 +20°C° 0 mm 3 mps 740 mmHg 94%
    01:00 +19°C° 0 mm 3 mps 740 mmHg 95%
    02:00 +19°C° 0 mm 3 mps 740 mmHg 97%
    03:00 +19°C° 0 mm 3 mps 740 mmHg 97%
    04:00 +18°C° 0 mm 3 mps 740 mmHg 98%
    05:00 +18°C° 0 mm 3 mps 740 mmHg 98%
    06:00 +19°C° 0 mm 3 mps 740 mmHg 96%
    07:00 +19°C° 0 mm 3 mps 740 mmHg 94%
    08:00 +20°C° 0 mm 3 mps 740 mmHg 92%
    09:00 +21°C° 0.1 mm 3 mps 740 mmHg 89%
    10:00 +22°C° 0.1 mm 3 mps 740 mmHg 86%
    11:00 +24°C° 0.1 mm 3 mps 741 mmHg 83%
    12:00 +25°C° 0.3 mm 3 mps 740 mmHg 79%
    13:00 +26°C° 0.3 mm 2 mps 740 mmHg 74%
    14:00 +27°C° 0.3 mm 2 mps 740 mmHg 69%
    15:00 +27°C° 0.5 mm 2 mps 740 mmHg 69%
    16:00 +27°C° 0.5 mm 3 mps 740 mmHg 69%
    17:00 +27°C° 0.5 mm 3 mps 740 mmHg 70%
    18:00 +26°C° 0.6 mm 2 mps 740 mmHg 75%
    19:00 +25°C° 0.6 mm 2 mps 740 mmHg 80%
    20:00 +23°C° 0.6 mm 2 mps 740 mmHg 86%
    21:00 +23°C° 0 mm 1 mps 740 mmHg 87%
    22:00 +22°C° 0 mm 1 mps 740 mmHg 89%
    23:00 +21°C° 0 mm 1 mps 740 mmHg 91%

    26 July, Thursday

    Time Temperature Precipitation Wind Pressure Humidity
    00:00 +21°C° 0 mm 1 mps 740 mmHg 91%
    01:00 +21°C° 0 mm 1 mps 740 mmHg 92%
    02:00 +20°C° 0 mm 1 mps 740 mmHg 93%
    03:00 +20°C° 0 mm 1 mps 740 mmHg 93%
    04:00 +20°C° 0 mm 1 mps 740 mmHg 94%
    05:00 +20°C° 0 mm 1 mps 740 mmHg 94%
    06:00 +21°C° 0 mm 1 mps 740 mmHg 90%
    07:00 +22°C° 0 mm 1 mps 741 mmHg 86%
    08:00 +24°C° 0 mm 1 mps 741 mmHg 83%
    09:00 +25°C° 0.1 mm 1 mps 741 mmHg 77%
    10:00 +27°C° 0.1 mm 1 mps 741 mmHg 71%
    11:00 +28°C° 0.1 mm 1 mps 741 mmHg 65%
    12:00 +29°C° 0.1 mm 1 mps 741 mmHg 63%
    13:00 +29°C° 0.1 mm 1 mps 741 mmHg 61%
    14:00 +30°C° 0.1 mm 1 mps 741 mmHg 58%
    15:00 +29°C° 0.6 mm 1 mps 741 mmHg 60%
    16:00 +29°C° 0.6 mm 1 mps 741 mmHg 61%
    17:00 +29°C° 0.6 mm 1 mps 741 mmHg 63%
    18:00 +28°C° 0.4 mm 1 mps 741 mmHg 69%
    19:00 +26°C° 0.4 mm 1 mps 741 mmHg 75%
    20:00 +25°C° 0.4 mm 1 mps 741 mmHg 80%
    21:00 +24°C° 0.1 mm 1 mps 741 mmHg 83%
    22:00 +23°C° 0.1 mm 1 mps 741 mmHg 85%
    23:00 +23°C° 0.1 mm 1 mps 741 mmHg 88%

    27 July, Friday

    Time Temperature Precipitation Wind Pressure Humidity
    00:00 +22°C° 0.1 mm 1 mps 741 mmHg 89%
    01:00 +22°C° 0.1 mm 1 mps 741 mmHg 90%
    02:00 +20°C° 0.1 mm 0 mps 741 mmHg 91%
    03:00 +21°C° 0 mm 1 mps 741 mmHg 91%
    04:00 +21°C° 0 mm 1 mps 741 mmHg 92%
    05:00 +21°C° 0 mm 1 mps 741 mmHg 93%
    06:00 +22°C° 0 mm 1 mps 741 mmHg 89%
    07:00 +24°C° 0 mm 1 mps 742 mmHg 85%
    08:00 +25°C° 0 mm 1 mps 742 mmHg 81%
    09:00 +26°C° 0.7 mm 2 mps 742 mmHg 76%
    10:00 +28°C° 0.7 mm 2 mps 742 mmHg 71%
    11:00 +29°C° 0.7 mm 2 mps 742 mmHg 66%
    12:00 +30°C° 0.1 mm 2 mps 741 mmHg 63%
    13:00 +30°C° 0.1 mm 2 mps 741 mmHg 59%
    14:00 +31°C° 0.1 mm 2 mps 741 mmHg 55%
    15:00 +31°C° 0.3 mm 2 mps 741 mmHg 58%
    16:00 +31°C° 0.3 mm 2 mps 741 mmHg 60%
    17:00 +30°C° 0.3 mm 2 mps 741 mmHg 63%
    18:00 +29°C° 0.6 mm 2 mps 741 mmHg 69%
    19:00 +27°C° 0.6 mm 1 mps 741 mmHg 75%
    20:00 +26°C° 0.6 mm 1 mps 741 mmHg 81%
    21:00 +25°C° 0.1 mm 1 mps 741 mmHg 83%
    22:00 +24°C° 0.1 mm 1 mps 741 mmHg 85%
    23:00 +24°C° 0.1 mm 1 mps 741 mmHg 87%
    Show more